OE3AJC-13 Weather Reports


Display with metric or nautical units.
time (UTC)temp
F
wind
direction
speed
MPH
gust
MPH
rain 1hr
in
rain 24hr
in
rain mn
in
humidity
%
barometer
mb
20260505115346 77 130 6.0 10.0 0.00 0.00 0.00 35 1006.7
20260505114344 77 121 5.0 8.0 0.00 0.00 0.00 35 1006.6
20260505113343 76 106 3.0 4.0 0.00 0.00 0.00 36 1006.7
20260505112342 76 174 5.0 9.0 0.00 0.00 0.00 36 1006.8
20260505111341 77 196 3.0 4.0 0.00 0.00 0.00 37 1006.8
20260505101327 75 197 2.0 3.0 0.00 0.00 0.00 38 1007.5
20260505100325 75 347 4.0 5.0 0.00 0.00 0.00 38 1007.5
20260505095321 75 169 2.0 3.0 0.00 0.00 0.00 39 1007.7
20260505093318 73 215 2.0 3.0 0.00 0.00 0.00 41 1007.9
20260505092316 72 103 2.0 3.0 0.00 0.00 0.00 43 1007.8
20260505091314 71 278 2.0 3.0 0.00 0.00 0.00 42 1007.7
20260505090312 71 100 4.0 4.0 0.00 0.00 0.00 44 1008.0
20260505083306 69 211 1.0 2.0 0.00 0.00 0.00 44 1008.4
20260505082305 68 243 3.0 4.0 0.00 0.00 0.00 45 1008.6
20260505081302 68 158 4.0 5.0 0.00 0.00 0.00 46 1008.4
20260505080301 67 209 0.0 1.0 0.00 0.00 0.00 47 1008.3
20260505075259 66 206 2.0 3.0 0.00 0.00 0.00 47 1008.5
20260505073255 66 184 1.0 2.0 0.00 0.00 0.00 47 1008.7
20260505072253 65 226 0.0 1.0 0.00 0.00 0.00 47 1008.8
20260505071251 66 194 0.0 1.0 0.00 0.00 0.00 46 1008.9
20260505070248 64 224 0.0 0.0 0.00 0.00 0.00 49 1008.9
20260505065226 63 228 0.0 1.0 0.00 0.00 0.00 51 1008.9
20260505064222 61 219 2.0 2.0 0.00 0.00 0.00 55 1008.7
20260505063219 59 247 1.0 2.0 0.00 0.00 0.00 57 1009.0
20260505062217 58 240 1.0 2.0 0.00 0.00 0.00 57 1009.0
20260505060211 56 226 0.0 1.0 0.00 0.00 0.00 62 1009.0
20260505055209 54 229 0.0 0.0 0.00 0.00 0.00 64 1009.0
20260505054208 53 227 1.0 1.0 0.00 0.00 0.00 67 1009.0
20260505053205 74 250 0.0 1.0 0.00 0.00 0.00 42 1014.0
20260505051540 74 250 0.0 1.0 0.00 0.00 0.00 42 1014.0
20260505032557 74 250 0.0 1.0 0.00 0.00 0.00 42 1014.0
20260505023514 74 250 0.0 1.0 0.00 0.00 0.00 42 1014.0
20260505011310 74 250 0.0 1.0 0.00 0.00 0.00 42 1014.0
20260504171504 74 250 0.0 1.0 0.00 0.00 0.00 42 1014.0
20260504150852 74 250 0.0 1.0 0.00 0.00 0.00 42 1014.0